Hourly Weather Danilovka

Today, 23 April, Friday

Time Temperature Precipitation Wind Pressure Humidity
00:00 +4°C° 0 mm 3 mps 752 mmHg 92%
01:00 +3°C° 0 mm 3 mps 752 mmHg 93%
02:00 +4°C° 0 mm 2 mps 752 mmHg 94%
03:00 +3°C° 0 mm 2 mps 752 mmHg 95%
04:00 +3°C° 0 mm 2 mps 752 mmHg 93%
05:00 +3°C° 0 mm 3 mps 751 mmHg 90%
06:00 +3°C° 0 mm 3 mps 751 mmHg 88%
07:00 +5°C° 0 mm 3 mps 751 mmHg 80%
08:00 +6°C° 0 mm 4 mps 751 mmHg 73%
09:00 +8°C° 0 mm 4 mps 750 mmHg 65%
10:00 +10°C° 0 mm 4 mps 750 mmHg 58%
11:00 +12°C° 0 mm 4 mps 750 mmHg 52%
12:00 +13°C° 0 mm 4 mps 749 mmHg 45%
13:00 +13°C° 0 mm 4 mps 749 mmHg 48%
14:00 +12°C° 0 mm 5 mps 749 mmHg 51%
15:00 +12°C° 0 mm 5 mps 749 mmHg 54%
16:00 +10°C° 0.1 mm 5 mps 749 mmHg 64%
17:00 +9°C° 0.1 mm 5 mps 749 mmHg 73%
18:00 +8°C° 0.1 mm 5 mps 749 mmHg 83%
19:00 +7°C° 0.3 mm 4 mps 748 mmHg 86%
20:00 +7°C° 0.3 mm 4 mps 748 mmHg 89%
21:00 +7°C° 0.3 mm 3 mps 747 mmHg 91%
22:00 +6°C° 0.6 mm 4 mps 746 mmHg 92%
23:00 +6°C° 0.6 mm 4 mps 746 mmHg 93%

Tomorrow, 24 April, Saturday

Time Temperature Precipitation Wind Pressure Humidity
00:00 +6°C° 0.6 mm 4 mps 745 mmHg 93%
01:00 +7°C° 0.4 mm 3 mps 744 mmHg 93%
02:00 +7°C° 0.4 mm 3 mps 744 mmHg 93%
03:00 +6°C° 0.4 mm 2 mps 743 mmHg 93%
04:00 +6°C° 0.4 mm 2 mps 743 mmHg 94%
05:00 +6°C° 0.4 mm 2 mps 743 mmHg 95%
06:00 +6°C° 0.4 mm 2 mps 742 mmHg 95%
07:00 +7°C° 0.2 mm 1 mps 742 mmHg 94%
08:00 +8°C° 0.2 mm 1 mps 742 mmHg 92%
09:00 +7°C° 0.2 mm 0 mps 742 mmHg 91%
10:00 +8°C° 0.1 mm 1 mps 742 mmHg 89%
11:00 +8°C° 0.1 mm 1 mps 742 mmHg 88%
12:00 +7°C° 0.1 mm 2 mps 742 mmHg 86%
13:00 +8°C° 0 mm 2 mps 742 mmHg 84%
14:00 +8°C° 0 mm 2 mps 742 mmHg 82%
15:00 +8°C° 0 mm 3 mps 742 mmHg 80%
16:00 +8°C° 0 mm 2 mps 742 mmHg 79%
17:00 +9°C° 0 mm 2 mps 742 mmHg 79%
18:00 +10°C° 0 mm 1 mps 742 mmHg 78%
19:00 +8°C° 0 mm 2 mps 741 mmHg 81%
20:00 +7°C° 0 mm 2 mps 741 mmHg 83%
21:00 +7°C° 0 mm 3 mps 741 mmHg 86%
22:00 +6°C° 0.1 mm 4 mps 741 mmHg 88%
23:00 +6°C° 0.1 mm 5 mps 740 mmHg 89%

Day after tomorrow, 25 April, Sunday

Time Temperature Precipitation Wind Pressure Humidity
00:00 +7°C° 0.1 mm 5 mps 740 mmHg 91%
01:00 +7°C° 0.2 mm 6 mps 740 mmHg 92%
02:00 +5°C° 0.2 mm 6 mps 740 mmHg 93%
03:00 +5°C° 0.2 mm 6 mps 739 mmHg 94%
04:00 +5°C° 0.6 mm 6 mps 740 mmHg 90%
05:00 +4°C° 0.6 mm 6 mps 740 mmHg 86%
06:00 +3°C° 0.6 mm 7 mps 741 mmHg 82%
07:00 +4°C° 0 mm 7 mps 741 mmHg 74%
08:00 +5°C° 0 mm 8 mps 741 mmHg 67%
09:00 +6°C° 0 mm 9 mps 742 mmHg 59%
10:00 +7°C° 0.1 mm 9 mps 742 mmHg 53%
11:00 +7°C° 0.1 mm 10 mps 742 mmHg 46%
12:00 +8°C° 0.1 mm 11 mps 743 mmHg 39%
13:00 +8°C° 0 mm 10 mps 743 mmHg 40%
14:00 +8°C° 0 mm 10 mps 743 mmHg 40%
15:00 +8°C° 0 mm 10 mps 744 mmHg 41%
16:00 +7°C° 0 mm 9 mps 744 mmHg 47%
17:00 +6°C° 0 mm 8 mps 745 mmHg 52%
18:00 +5°C° 0 mm 7 mps 745 mmHg 58%
19:00 +5°C° 0 mm 5 mps 745 mmHg 63%
20:00 +4°C° 0 mm 4 mps 746 mmHg 67%
21:00 +3°C° 0 mm 3 mps 746 mmHg 72%
22:00 +3°C° 0 mm 3 mps 746 mmHg 74%
23:00 +3°C° 0 mm 3 mps 747 mmHg 76%

26 April, Monday

Time Temperature Precipitation Wind Pressure Humidity
00:00 +3°C° 0 mm 3 mps 747 mmHg 78%
01:00 +2°C° 0 mm 3 mps 747 mmHg 76%
02:00 +2°C° 0 mm 3 mps 747 mmHg 75%
03:00 +3°C° 0 mm 2 mps 747 mmHg 74%
04:00 +4°C° 0 mm 2 mps 747 mmHg 73%
05:00 +4°C° 0 mm 2 mps 747 mmHg 71%
06:00 +5°C° 0 mm 2 mps 748 mmHg 70%
07:00 +6°C° 0 mm 2 mps 747 mmHg 62%
08:00 +7°C° 0 mm 2 mps 747 mmHg 54%
09:00 +9°C° 0 mm 2 mps 747 mmHg 47%
10:00 +9°C° 0 mm 3 mps 747 mmHg 44%
11:00 +10°C° 0 mm 3 mps 746 mmHg 41%
12:00 +11°C° 0 mm 3 mps 746 mmHg 38%
13:00 +11°C° 0 mm 3 mps 746 mmHg 38%
14:00 +11°C° 0 mm 4 mps 745 mmHg 39%
15:00 +12°C° 0 mm 4 mps 745 mmHg 39%
16:00 +11°C° 0 mm 4 mps 744 mmHg 48%
17:00 +10°C° 0 mm 4 mps 744 mmHg 57%
18:00 +7°C° 0 mm 4 mps 743 mmHg 65%
19:00 +8°C° 0 mm 3 mps 743 mmHg 70%
20:00 +7°C° 0 mm 2 mps 742 mmHg 74%
21:00 +7°C° 0 mm 2 mps 742 mmHg 78%
22:00 +6°C° 0 mm 2 mps 741 mmHg 80%
23:00 +6°C° 0 mm 2 mps 741 mmHg 81%

27 April, Tuesday

Time Temperature Precipitation Wind Pressure Humidity
00:00 +7°C° 0 mm 1 mps 741 mmHg 83%
01:00 +6°C° 0.1 mm 2 mps 740 mmHg 84%
02:00 +6°C° 0.1 mm 2 mps 740 mmHg 85%
03:00 +6°C° 0.1 mm 2 mps 740 mmHg 87%
04:00 +6°C° 0 mm 2 mps 739 mmHg 85%
05:00 +6°C° 0 mm 2 mps 739 mmHg 83%
06:00 +6°C° 0 mm 2 mps 739 mmHg 81%
07:00 +7°C° 0 mm 2 mps 739 mmHg 74%
08:00 +8°C° 0 mm 2 mps 739 mmHg 67%
09:00 +9°C° 0 mm 2 mps 739 mmHg 60%
10:00 +10°C° 0 mm 3 mps 739 mmHg 55%
11:00 +11°C° 0 mm 3 mps 739 mmHg 51%
12:00 +13°C° 0 mm 3 mps 739 mmHg 47%
13:00 +13°C° 0 mm 4 mps 739 mmHg 47%
14:00 +13°C° 0 mm 4 mps 739 mmHg 47%
15:00 +13°C° 0 mm 4 mps 740 mmHg 46%
16:00 +12°C° 0 mm 5 mps 740 mmHg 51%
17:00 +12°C° 0 mm 5 mps 740 mmHg 55%
18:00 +10°C° 0 mm 5 mps 740 mmHg 59%
19:00 +10°C° 0 mm 4 mps 740 mmHg 65%
20:00 +8°C° 0 mm 3 mps 740 mmHg 71%
21:00 +7°C° 0 mm 3 mps 741 mmHg 77%
22:00 +6°C° 0 mm 2 mps 741 mmHg 76%
23:00 +6°C° 0 mm 2 mps 741 mmHg 76%

28 April, Wednesday

Time Temperature Precipitation Wind Pressure Humidity
00:00 +7°C° 0 mm 1 mps 741 mmHg 75%
01:00 +6°C° 0 mm 1 mps 741 mmHg 73%
02:00 +5°C° 0 mm 2 mps 741 mmHg 72%
03:00 +5°C° 0 mm 2 mps 741 mmHg 71%
04:00 +5°C° 0 mm 3 mps 741 mmHg 71%
05:00 +5°C° 0 mm 3 mps 741 mmHg 71%
06:00 +5°C° 0 mm 3 mps 741 mmHg 71%
07:00 +7°C° 0 mm 3 mps 741 mmHg 64%
08:00 +7°C° 0 mm 4 mps 741 mmHg 58%
09:00 +8°C° 0 mm 4 mps 741 mmHg 52%
10:00 +9°C° 0.1 mm 5 mps 741 mmHg 48%
11:00 +9°C° 0.1 mm 6 mps 741 mmHg 44%
12:00 +9°C° 0.1 mm 7 mps 741 mmHg 40%
13:00 +9°C° 0 mm 7 mps 741 mmHg 38%
14:00 +9°C° 0 mm 7 mps 742 mmHg 35%
15:00 +10°C° 0 mm 7 mps 742 mmHg 33%
16:00 +9°C° 0 mm 7 mps 742 mmHg 37%
17:00 +8°C° 0 mm 6 mps 743 mmHg 41%
18:00 +8°C° 0 mm 5 mps 743 mmHg 45%
19:00 +7°C° 0 mm 5 mps 744 mmHg 50%
20:00 +6°C° 0 mm 4 mps 744 mmHg 55%
21:00 +5°C° 0 mm 3 mps 745 mmHg 60%
22:00 +4°C° 0 mm 3 mps 745 mmHg 62%
23:00 +4°C° 0 mm 3 mps 746 mmHg 64%
Show more